Regional Weather Roundup
Issued by NWS Upton, NY

Current Version | Previous Version | Text Only | Print | Product List | Glossary Off
Versions: 1 2 3 4 5 6 7 8 9 10 11 12 13 14 15 16 17 18 19 20 21 22 23 24 25 26 27 28 29 30 31 32 33 34 35 36 37 38 39 40 41 42 43 44 45 46 47 48 49 50
000 ASUS41 KOKX 301218 RWROKX REGIONAL WEATHER ROUNDUP NATIONAL WEATHER SERVICE NEW YORK NY 800 AM EDT SAT MAY 30 2015 NOTE: "FAIR" INDICATES FEW OR NO CLOUDS BELOW 12,000 FEET WITH NO SIGNIFICANT WEATHER AND/OR OBSTRUCTIONS TO VISIBILITY. NYZ071-072-176-178-NJZ106-104-301300- NEW YORK CITY METRO AREA CITY SKY/WX TMP DP RH WIND PRES REMARKS CENTRAL PARK SUNNY 71 64 78 VRB5 30.24R LAGUARDIA APRT MOSUNNY 72 63 73 S8 30.21S KENNEDY INTL PTSUNNY 68 63 83 S8 30.23S VSB 3/4 NEWARK/LIBERTY MOSUNNY 72 65 78 SW6 30.21S BRNX BOT. GARD N/A 72 64 78 SE8 30.22F TETERBORO SUNNY 71 64 78 S7 30.20S $$ NYZ177-179-078>081-301300- LONG ISLAND NEW YORK CITY SKY/WX TMP DP RH WIND PRES REMARKS FARMINGDALE CLOUDY 66 64 93 S7 30.23S FOG ISLIP PTSUNNY 67 64 90 SW7 30.22S SHIRLEY MOSUNNY 69 65 86 S9 30.24S WESTHAMPTON FOG 64 64 100 SW6 30.25S VSB 1/2 MONTAUK POINT N/A 62 61 96 S3 30.26S $$ NYZ052-065-067-301300- HUDSON VALLEY CITY SKY/WX TMP DP RH WIND PRES REMARKS WHITE PLAINS MOSUNNY 67 63 87 S5 30.21S NEWBURGH SUNNY 70 64 83 S6 30.20F MONTGOMERY SUNNY 68 63 84 SW3 30.19S POUGHKEEPSIE SUNNY 71 62 73 SE6 30.18S ALBANY MOSUNNY 70 59 68 S15 30.14S $$ NJZ001-105-106-008-010-013-015-019>022-104-301300- NEW JERSEY CITY SKY/WX TMP DP RH WIND PRES REMARKS NEWARK/LIBERTY MOSUNNY 72 65 78 SW6 30.21S TETERBORO SUNNY 71 64 78 S7 30.20S CALDWELL SUNNY 69 62 78 VRB5 30.21S MORRISTOWN MOSUNNY 72 68 88 W6 30.22S SOMERVILLE CLOUDY 68 62 81 CALM 30.20R SUSSEX CLOUDY 68 62 81 SW8 30.21S ANDOVER N/A 69 64 84 SW8 30.21S TRENTON CLOUDY 68 65 90 S8 30.21R MILLVILLE CLOUDY 70 68 93 VRB5 30.23R ATLANTIC CITY PTSUNNY 71 66 84 S9 30.24R WRIGHTSTOWN PTSUNNY 70 68 94 S10 30.19F TOMS RIVER CLOUDY N/A N/A N/A SW12 30.23R BELMAR SUNNY 70 63 78 SW7 30.22S $$ PAZ047>061-062-071-301300- EASTERN PENNSYLVANIA CITY SKY/WX TMP DP RH WIND PRES REMARKS PHILADELPHIA CLOUDY 71 66 84 S9 30.21S ALLENTOWN CLOUDY 70 64 81 S6 30.20S SCRANTON PTSUNNY 73 64 73 S5 30.17S $$ CTZ002-004>006-009-010-012-RIZ004-006-007-MAZ004-011-015-301300- SOUTHERN NEW ENGLAND IN CT CITY SKY/WX TMP DP RH WIND PRES REMARKS BRADLEY INTL PTSUNNY 65 60 84 S8 30.19F HARTFORD CLOUDY 64 60 87 S8 30.21S DANBURY MOSUNNY 69 61 75 SW7 30.23S WTRBRY/OXFORD CLOUDY 63 57 82 CALM 30.25R VSB 1/4 BRIDGEPORT MOSUNNY 66 63 90 SW5 30.23R MERIDEN CLOUDY 63 61 93 S7 30.22S FOG NEW HAVEN CLOUDY 64 62 93 E5 30.23S FOG CHESTER FOG 63 63 100 S6 30.24S VSB 1/4 GROTON FOG 59 58 96 SE6 30.24R VSB 1/4 WILLIMANTIC CLOUDY 60 58 92 SW5 30.23F FOG IN RI CITY SKY/WX TMP DP RH WIND PRES REMARKS PROVIDENCE CLOUDY 62 60 93 SE8 30.24S FOG BLOCK ISLAND CLOUDY 61 57 88 SW9 30.26S VSB 1/2 WESTERLY CLOUDY 59 58 96 S3 30.25S FOG IN MA CITY SKY/WX TMP DP RH WIND PRES REMARKS BOSTON MOSUNNY 63 59 87 S10 30.20F WORCESTER SUNNY 69 61 75 SW15 30.21S WESTFIELD CLOUDY 64 59 83 SE6 30.20S HAZE PROVINCETOWN CLOUDY 61 57 88 SW12 30.23F VSB 1/4 NANTUCKET CLOUDY 64 61 90 SW10 30.26S $$ ANZ330-335-338-340-345-350-353-355-301300- COASTAL MARINE OBSERVATIONS STATION/POSITION TIME SKY/WX TEMP WIND PRES VSBY WAVE AIR SEA DIR/SP/G HT/PER (UTC) (F) (DEG/KT/KT) (MB) (MI) (FT/S) NY HARB ENTRANCE 1150 63 62 190/ 12/ 12 1023.1 2/ 9 4S FIRE IS 1103 59 N/A 3/ 9 20S FIRE ISLAND 1150 61 59 190/ 8/ 10 1023.8 3/ 9 GREAT SOUTH BAY 1100 64 69 260/ 6/ 8 N/A 23SW MTP 1150 60 56 210/ 8/ 8 1024.0 2/ 9 HUDSON CANYON NOT AVBL KINGS POINT 1100 65 57 180/ 5/ 6 1022.5 CENTRAL LI SOUND 1200 60 59 180/ 4/ 4 N/A EASTERN LI SOUND 1100 56 130/ 4/ 6 N/A ROBBINS REEF 1100 66 160/ 8/ 9 1021.9 $$ >>>>>>>>>>>>>>>>>>>>>>>>>>>> KEY <<<<<<<<<<<<<<<<<<<<<<<<<<< > < > SKY/WX - SKY CONDITION/PRESENT WEATHER < > TMP - TEMPERATURE IN FAHRENHEIT < > DP - DEWPOINT IN FAHRENHEIT < > RH - RELATIVE HUMIDITY IN PERCENT < > WIND - DIRECTION AND SPEED IN MPH < > PRES - MEAN SEA LEVEL PRESSURE IN INCHES OF HG < > WCI - WIND CHILL INDEX < > VSB - VISIBILITY IN MILES < > HX - HEAT INDEX < > TC - TEMPERATURE IN CELSIUS < > VRB - VARIABLE WIND DIRECTION < > < >>>>>>>>>>>>>>>>>>>>>>>>>>>> KEY <<<<<<<<<<<<<<<<<<<<<<<<<<<

USA.gov is the U.S. government's official web portal to all federal, state and local government web resources and services.